SAS666 ENVA-ENTC

Flight info

Callsign SAS666
Flight time N/A
Altitude 35000
Route NIGEX DCT PENNO DCT ATWEG
Aircraft A321/M-SDE3FGHIRWY/LB1

Departure

Time N/A
Airport Trondheim Airport, Værnes (ENVA)

Arrival

Time 2026-05-04 18:25
Airport Tromsø Airport (ENTC)
Time Latitude Longitude Altitude Speed Heading
2026-05-04 18:17 69.34188 18.65461 8311 ft 277 kts 61°
2026-05-04 18:18 69.35201 18.70128 7938 ft 276 kts 61°
2026-05-04 18:18 69.36168 18.74827 7608 ft 273 kts 62°
2026-05-04 18:18 69.37102 18.79466 7428 ft 265 kts 62°
2026-05-04 18:18 69.37994 18.83907 7284 ft 255 kts 61°
2026-05-04 18:19 69.39726 18.92455 6675 ft 249 kts 61°
2026-05-04 18:19 69.40623 18.96648 6337 ft 247 kts 52°
2026-05-04 18:19 69.41987 18.99516 6006 ft 246 kts 19°
2026-05-04 18:20 69.43677 18.99871 5614 ft 247 kts 347°
2026-05-04 18:20 69.45233 18.97968 5250 ft 247 kts 335°
2026-05-04 18:20 69.46809 18.96048 4872 ft 246 kts 340°
2026-05-04 18:20 69.48419 18.94362 4498 ft 246 kts 341°
2026-05-04 18:21 69.50015 18.92744 4147 ft 239 kts 341°
2026-05-04 18:21 69.51543 18.91178 3813 ft 229 kts 341°
2026-05-04 18:21 69.53039 18.89614 3495 ft 225 kts 341°
2026-05-04 18:21 69.54477 18.88195 3157 ft 214 kts 345°
2026-05-04 18:22 69.55894 18.87240 2814 ft 210 kts 351°
2026-05-04 18:22 69.57325 18.86676 2476 ft 198 kts 356°
2026-05-04 18:22 69.58619 18.86506 2170 ft 179 kts
2026-05-04 18:22 69.59800 18.86656 1869 ft 161 kts
2026-05-04 18:23 69.60861 18.87034 1606 ft 148 kts 11°
2026-05-04 18:23 69.61852 18.87585 1379 ft 143 kts 14°
2026-05-04 18:23 69.62803 18.88269 1150 ft 139 kts 15°
2026-05-04 18:23 69.63747 18.88855 931 ft 138 kts 12°
2026-05-04 18:24 69.64669 18.89418 722 ft 136 kts 14°
2026-05-04 18:24 69.65589 18.90032 470 ft 135 kts 14°
2026-05-04 18:24 69.66505 18.90638 253 ft 135 kts 14°
2026-05-04 18:24 69.67407 18.91267 58 ft 133 kts 14°
2026-05-04 18:25 69.68211 18.91810 31 ft 97 kts 13°
2026-05-04 18:25 69.68678 18.92117 23 ft 26 kts 12°
2026-05-04 18:25 69.68765 18.91993 22 ft 17 kts 285°
2026-05-04 18:25 69.68741 18.91693 20 ft 17 kts 210°
2026-05-04 18:26 69.68594 18.91592 23 ft 27 kts 194°
2026-05-04 18:26 69.68408 18.91500 26 ft 27 kts 177°
2026-05-04 18:26 69.68222 18.91427 30 ft 27 kts 188°
2026-05-04 18:26 69.68103 18.91337 35 ft 7 kts 237°
2026-05-04 18:27 69.68108 18.91186 35 ft 9 kts 284°
2026-05-04 18:27 69.68115 18.91113 35 ft 3 kts 284°
2026-05-04 18:27 69.68120 18.91026 34 ft 6 kts 281°
2026-05-04 18:27 69.68123 18.90990 34 ft 2 kts 283°
2026-05-04 18:28 69.68124 18.90978 34 ft 0 kts 283°